| time (UTC) | temp F | wind direction | speed MPH | gust MPH | rain 1hr in | rain 24hr in | rain mn in | humidity % | barometer mb |
| 20260503212104 | 73 | 216 | 2.0 | 2.0 | 0.00 | 0.00 | 0.00 | 30 | 1001.6 |
| 20260503211602 | 73 | 288 | 5.0 | 6.0 | 0.00 | 0.00 | 0.00 | 31 | 1001.6 |
| 20260503211057 | 73 | 192 | 3.0 | 3.0 | 0.00 | 0.00 | 0.00 | 31 | 1001.6 |
| 20260503210554 | 73 | 174 | 4.0 | 5.0 | 0.00 | 0.00 | 0.00 | 31 | 1001.9 |
| 20260503210050 | 72 | 34 | 2.0 | 2.0 | 0.00 | 0.00 | 0.00 | 31 | 1001.9 |
| 20260503205547 | 73 | 240 | 5.0 | 5.0 | 0.00 | 0.00 | 0.00 | 30 | 1001.9 |
| 20260503205043 | 73 | 23 | 2.0 | 2.0 | 0.00 | 0.00 | 0.00 | 32 | 1001.9 |
| 20260503204540 | 72 | 215 | 4.0 | 4.0 | 0.00 | 0.00 | 0.00 | 31 | 1001.9 |
| 20260503204037 | 72 | 136 | 2.0 | 2.0 | 0.00 | 0.00 | 0.00 | 31 | 1001.6 |
| 20260503203534 | 71 | 269 | 1.0 | 1.0 | 0.00 | 0.00 | 0.00 | 32 | 1001.9 |
| 20260503203031 | 71 | 186 | 4.0 | 4.0 | 0.00 | 0.00 | 0.00 | 32 | 1001.9 |
| 20260503202529 | 71 | 228 | 5.0 | 6.0 | 0.00 | 0.00 | 0.00 | 31 | 1002.3 |
| 20260503202027 | 71 | 298 | 3.0 | 3.0 | 0.00 | 0.00 | 0.00 | 32 | 1002.3 |
| 20260503201525 | 71 | 138 | 3.0 | 4.0 | 0.00 | 0.00 | 0.00 | 31 | 1002.3 |
| 20260503201022 | 71 | 288 | 2.0 | 2.0 | 0.00 | 0.00 | 0.00 | 31 | 1002.3 |
| 20260503200518 | 72 | 264 | 2.0 | 2.0 | 0.00 | 0.00 | 0.00 | 32 | 1002.3 |
| 20260503200015 | 72 | 144 | 2.0 | 2.0 | 0.00 | 0.00 | 0.00 | 32 | 1002.3 |
| 20260503195512 | 71 | 291 | 2.0 | 2.0 | 0.00 | 0.00 | 0.00 | 32 | 1002.3 |
| 20260503195009 | 70 | 144 | 5.0 | 6.0 | 0.00 | 0.00 | 0.00 | 32 | 1002.6 |
| 20260503194506 | 70 | 136 | 4.0 | 4.0 | 0.00 | 0.00 | 0.00 | 33 | 1002.6 |
| 20260503194000 | 70 | 275 | 4.0 | 4.0 | 0.00 | 0.00 | 0.00 | 32 | 1002.9 |
| 20260503193457 | 69 | 115 | 3.0 | 3.0 | 0.00 | 0.00 | 0.00 | 33 | 1002.9 |
| 20260503192952 | 70 | 204 | 4.0 | 4.0 | 0.00 | 0.00 | 0.00 | 34 | 1002.6 |
| 20260503192449 | 71 | 48 | 2.0 | 2.0 | 0.00 | 0.00 | 0.00 | 31 | 1002.9 |
| 20260503191944 | 69 | 320 | 3.0 | 3.0 | 0.00 | 0.00 | 0.00 | 32 | 1002.9 |
| 20260503191442 | 68 | 162 | 5.0 | 6.0 | 0.00 | 0.00 | 0.00 | 33 | 1003.3 |
| 20260503190938 | 68 | 189 | 4.0 | 5.0 | 0.00 | 0.00 | 0.00 | 35 | 1002.9 |
| 20260503190436 | 68 | 276 | 3.0 | 3.0 | 0.00 | 0.00 | 0.00 | 35 | 1002.9 |
| 20260503185933 | 68 | 314 | 2.0 | 2.0 | 0.00 | 0.00 | 0.00 | 35 | 1002.9 |
| 20260503185429 | 69 | 174 | 5.0 | 6.0 | 0.00 | 0.00 | 0.00 | 34 | 1003.3 |
| 20260503184928 | 68 | 144 | 5.0 | 6.0 | 0.00 | 0.00 | 0.00 | 34 | 1003.3 |
| 20260503184425 | 69 | 168 | 3.0 | 4.0 | 0.00 | 0.00 | 0.00 | 34 | 1003.3 |
| 20260503183922 | 67 | 168 | 3.0 | 3.0 | 0.00 | 0.00 | 0.00 | 34 | 1003.3 |
| 20260503183418 | 67 | 320 | 2.0 | 2.0 | 0.00 | 0.00 | 0.00 | 36 | 1003.3 |
| 20260503182915 | 67 | 278 | 3.0 | 3.0 | 0.00 | 0.00 | 0.00 | 34 | 1003.6 |
| 20260503182414 | 67 | 331 | 2.0 | 2.0 | 0.00 | 0.00 | 0.00 | 34 | 1003.6 |
| 20260503181911 | 67 | 172 | 5.0 | 6.0 | 0.00 | 0.00 | 0.00 | 34 | 1003.6 |
| 20260503181408 | 67 | 216 | 2.0 | 2.0 | 0.00 | 0.00 | 0.00 | 35 | 1003.6 |
| 20260503180904 | 67 | 350 | 3.0 | 4.0 | 0.00 | 0.00 | 0.00 | 35 | 1003.6 |
| 20260503180403 | 66 | 132 | 4.0 | 4.0 | 0.00 | 0.00 | 0.00 | 35 | 1003.6 |
| 20260503175858 | 66 | 60 | 3.0 | 4.0 | 0.00 | 0.00 | 0.00 | 35 | 1004.0 |
| 20260503175357 | 67 | 124 | 4.0 | 5.0 | 0.00 | 0.00 | 0.00 | 33 | 1004.0 |
| 20260503174857 | 66 | 162 | 2.0 | 2.0 | 0.00 | 0.00 | 0.00 | 35 | 1004.0 |
| 20260503174356 | 65 | 269 | 5.0 | 5.0 | 0.00 | 0.00 | 0.00 | 36 | 1004.0 |
| 20260503173856 | 67 | 318 | 4.0 | 5.0 | 0.00 | 0.00 | 0.00 | 34 | 1004.0 |
| 20260503173353 | 66 | 116 | 2.0 | 2.0 | 0.00 | 0.00 | 0.00 | 34 | 1004.0 |
| 20260503172850 | 65 | 162 | 3.0 | 4.0 | 0.00 | 0.00 | 0.00 | 37 | 1004.0 |
| 20260503172348 | 65 | 222 | 5.0 | 6.0 | 0.00 | 0.00 | 0.00 | 35 | 1004.0 |
| 20260503171843 | 65 | 118 | 5.0 | 6.0 | 0.00 | 0.00 | 0.00 | 38 | 1004.0 |
| 20260503171340 | 65 | 174 | 6.0 | 6.0 | 0.00 | 0.00 | 0.00 | 36 | 1004.3 |
| 20260503170838 | 65 | 276 | 3.0 | 4.0 | 0.00 | 0.00 | 0.00 | 37 | 1004.3 |
| 20260503170334 | 64 | 270 | 2.0 | 2.0 | 0.00 | 0.00 | 0.00 | 37 | 1004.3 |
| 20260503150727 | 62 | 179 | 5.0 | 5.0 | 0.00 | 0.00 | 0.00 | 41 | 1005.8 |
| 20260503150223 | 61 | 132 | 5.0 | 5.0 | 0.00 | 0.00 | 0.00 | 41 | 1005.8 |
| 20260503140147 | 58 | 145 | 4.0 | 4.0 | 0.00 | 0.00 | 0.00 | 48 | 1006.1 |
| 20260503131116 | 56 | 194 | 5.0 | 6.0 | 0.00 | 0.00 | 0.00 | 52 | 1006.4 |
| 20260503130614 | 56 | 210 | 6.0 | 7.0 | 0.00 | 0.00 | 0.00 | 51 | 1006.8 |
| 20260503130112 | 56 | 176 | 5.0 | 5.0 | 0.00 | 0.00 | 0.00 | 50 | 1006.8 |
| 20260503110504 | 50 | 169 | 1.0 | 1.0 | 0.00 | 0.00 | 0.00 | 49 | 1007.5 |
| 20260503090355 | 52 | 195 | 2.0 | 2.0 | 0.00 | 0.00 | 0.00 | 42 | 1008.1 |
| 20260503081323 | 52 | 166 | 4.0 | 4.0 | 0.00 | 0.00 | 0.00 | 40 | 1008.9 |
| 20260503080819 | 52 | 182 | 0.0 | 0.0 | 0.00 | 0.00 | 0.00 | 41 | 1008.9 |
| 20260503080317 | 52 | 183 | 0.0 | 0.0 | 0.00 | 0.00 | 0.00 | 41 | 1008.6 |
| 20260503072753 | 52 | 192 | 1.0 | 1.0 | 0.00 | 0.00 | 0.00 | 40 | 1008.6 |
| 20260503072250 | 51 | 282 | 2.0 | 2.0 | 0.00 | 0.00 | 0.00 | 39 | 1008.9 |
| 20260503071746 | 51 | 185 | 2.0 | 2.0 | 0.00 | 0.00 | 0.00 | 40 | 1008.9 |
| 20260503071243 | 51 | 167 | 1.0 | 1.0 | 0.00 | 0.00 | 0.00 | 40 | 1008.9 |
| 20260503070740 | 51 | 156 | 0.0 | 0.0 | 0.00 | 0.00 | 0.00 | 41 | 1008.9 |
| 20260503070238 | 51 | 179 | 0.0 | 0.0 | 0.00 | 0.00 | 0.00 | 40 | 1009.2 |
| 20260503060209 | 51 | 111 | 0.0 | 0.0 | 0.00 | 0.00 | 0.00 | 41 | 1009.6 |
| 20260503054655 | 51 | 185 | 2.0 | 2.0 | 0.00 | 0.00 | 0.00 | 39 | 1009.6 |
| 20260503054153 | 52 | 192 | 1.0 | 1.0 | 0.00 | 0.00 | 0.00 | 40 | 1009.6 |
| 20260503053651 | 52 | 234 | 0.0 | 0.0 | 0.00 | 0.00 | 0.00 | 40 | 1009.9 |
| 20260503053149 | 52 | 237 | 1.0 | 1.0 | 0.00 | 0.00 | 0.00 | 39 | 1009.9 |
| 20260503052645 | 52 | 237 | 2.0 | 2.0 | 0.00 | 0.00 | 0.00 | 39 | 1009.6 |
| 20260503052141 | 52 | 265 | 3.0 | 4.0 | 0.00 | 0.00 | 0.00 | 38 | 1009.9 |
| 20260503051637 | 52 | 122 | 1.0 | 1.0 | 0.00 | 0.00 | 0.00 | 39 | 1009.9 |
| 20260503051135 | 53 | 148 | 3.0 | 3.0 | 0.00 | 0.00 | 0.00 | 38 | 1009.9 |
| 20260503050631 | 53 | 102 | 0.0 | 0.0 | 0.00 | 0.00 | 0.00 | 38 | 1009.9 |
| 20260503050128 | 52 | 166 | 2.0 | 2.0 | 0.00 | 0.00 | 0.00 | 39 | 1009.9 |
| 20260503045626 | 52 | 193 | 0.0 | 0.0 | 0.00 | 0.00 | 0.00 | 39 | 1009.9 |
| 20260503045123 | 52 | 120 | 2.0 | 2.0 | 0.00 | 0.00 | 0.00 | 40 | 1009.9 |
| 20260503044619 | 52 | 180 | 2.0 | 2.0 | 0.00 | 0.00 | 0.00 | 39 | 1009.6 |
| 20260503044117 | 52 | 138 | 1.0 | 1.0 | 0.00 | 0.00 | 0.00 | 39 | 1009.9 |
| 20260503043613 | 52 | 84 | 2.0 | 2.0 | 0.00 | 0.00 | 0.00 | 40 | 1010.3 |
| 20260503043110 | 52 | 126 | 2.0 | 2.0 | 0.00 | 0.00 | 0.00 | 39 | 1010.3 |
| 20260503042607 | 52 | 136 | 0.0 | 0.0 | 0.00 | 0.00 | 0.00 | 40 | 1010.3 |
| 20260503042103 | 52 | 174 | 2.0 | 2.0 | 0.00 | 0.00 | 0.00 | 40 | 1010.3 |
| 20260503041559 | 52 | 154 | 2.0 | 2.0 | 0.00 | 0.00 | 0.00 | 41 | 1010.3 |
| 20260503041057 | 52 | 144 | 1.0 | 1.0 | 0.00 | 0.00 | 0.00 | 42 | 1010.6 |
| 20260503040554 | 51 | 171 | 0.0 | 0.0 | 0.00 | 0.00 | 0.00 | 41 | 1010.3 |
| 20260503040051 | 51 | 102 | 1.0 | 1.0 | 0.00 | 0.00 | 0.00 | 41 | 1010.6 |
| 20260503035548 | 51 | 266 | 1.0 | 1.0 | 0.00 | 0.00 | 0.00 | 43 | 1010.6 |
| 20260503035046 | 49 | 265 | 0.0 | 0.0 | 0.00 | 0.00 | 0.00 | 42 | 1010.6 |
| 20260503034543 | 48 | 265 | 0.0 | 0.0 | 0.00 | 0.00 | 0.00 | 45 | 1010.6 |
| 20260503034040 | 48 | 265 | 0.0 | 0.0 | 0.00 | 0.00 | 0.00 | 51 | 1010.6 |
| 20260503033537 | 47 | 265 | 0.0 | 0.0 | 0.00 | 0.00 | 0.00 | 48 | 1010.9 |
| 20260503033035 | 45 | 265 | 0.0 | 0.0 | 0.00 | 0.00 | 0.00 | 49 | 1010.6 |
| 20260503032533 | 44 | 264 | 0.0 | 0.0 | 0.00 | 0.00 | 0.00 | 52 | 1010.9 |
| 20260503032031 | 44 | 265 | 0.0 | 0.0 | 0.00 | 0.00 | 0.00 | 56 | 1010.9 |
| 20260503031528 | 43 | 265 | 0.0 | 0.0 | 0.00 | 0.00 | 0.00 | 56 | 1010.9 |
| 20260503031025 | 43 | 265 | 0.0 | 0.0 | 0.00 | 0.00 | 0.00 | 56 | 1011.3 |
| 20260503030521 | 43 | 265 | 0.0 | 0.0 | 0.00 | 0.00 | 0.00 | 57 | 1010.9 |
| 20260503030019 | 42 | 265 | 0.0 | 0.0 | 0.00 | 0.00 | 0.00 | 56 | 1011.3 |
| 20260503025515 | 42 | 265 | 0.0 | 0.0 | 0.00 | 0.00 | 0.00 | 56 | 1011.3 |
| 20260503025013 | 42 | 264 | 0.0 | 0.0 | 0.00 | 0.00 | 0.00 | 56 | 1010.9 |
| 20260503024509 | 42 | 264 | 0.0 | 0.0 | 0.00 | 0.00 | 0.00 | 57 | 1011.3 |
| 20260503024007 | 42 | 265 | 0.0 | 0.0 | 0.00 | 0.00 | 0.00 | 56 | 1010.9 |
| 20260503023503 | 42 | 265 | 0.0 | 0.0 | 0.00 | 0.00 | 0.00 | 56 | 1010.9 |
| 20260503023000 | 42 | 265 | 0.0 | 0.0 | 0.00 | 0.00 | 0.00 | 56 | 1011.3 |
| 20260503022455 | 43 | 265 | 0.0 | 0.0 | 0.00 | 0.00 | 0.00 | 55 | 1011.3 |
| 20260503021951 | 43 | 265 | 0.0 | 0.0 | 0.00 | 0.00 | 0.00 | 54 | 1011.3 |
| 20260503021448 | 43 | 265 | 0.0 | 0.0 | 0.00 | 0.00 | 0.00 | 54 | 1011.3 |
| 20260503020945 | 44 | 265 | 0.0 | 0.0 | 0.00 | 0.00 | 0.00 | 53 | 1011.3 |
| 20260503020443 | 44 | 265 | 0.0 | 0.0 | 0.00 | 0.00 | 0.00 | 53 | 1011.3 |
| 20260503015939 | 44 | 265 | 0.0 | 0.0 | 0.00 | 0.00 | 0.00 | 53 | 1011.3 |
| 20260503015436 | 44 | 265 | 0.0 | 0.0 | 0.00 | 0.00 | 0.00 | 51 | 1011.3 |
| 20260503014932 | 45 | 265 | 0.0 | 0.0 | 0.00 | 0.00 | 0.00 | 51 | 1010.9 |
| 20260503014429 | 45 | 265 | 0.0 | 0.0 | 0.00 | 0.00 | 0.00 | 51 | 1010.9 |
| 20260503013927 | 46 | 265 | 0.0 | 0.0 | 0.00 | 0.00 | 0.00 | 48 | 1011.3 |
| 20260503013424 | 47 | 265 | 0.0 | 0.0 | 0.00 | 0.00 | 0.00 | 46 | 1010.9 |
| 20260503012921 | 48 | 265 | 0.0 | 0.0 | 0.00 | 0.00 | 0.00 | 43 | 1010.9 |
| 20260503012419 | 49 | 265 | 0.0 | 0.0 | 0.00 | 0.00 | 0.00 | 42 | 1010.9 |
| 20260503011915 | 50 | 265 | 0.0 | 0.0 | 0.00 | 0.00 | 0.00 | 41 | 1010.9 |
| 20260503011412 | 51 | 265 | 0.0 | 0.0 | 0.00 | 0.00 | 0.00 | 39 | 1010.9 |
| 20260503010909 | 52 | 265 | 0.0 | 0.0 | 0.00 | 0.00 | 0.00 | 37 | 1010.9 |
| 20260503010406 | 53 | 265 | 0.0 | 0.0 | 0.00 | 0.00 | 0.00 | 35 | 1010.9 |
| 20260503005903 | 54 | 265 | 0.0 | 0.0 | 0.00 | 0.00 | 0.00 | 34 | 1011.3 |
| 20260503005400 | 55 | 265 | 0.0 | 0.0 | 0.00 | 0.00 | 0.00 | 33 | 1010.9 |
| 20260503004856 | 55 | 232 | 0.0 | 0.0 | 0.00 | 0.00 | 0.00 | 32 | 1011.3 |
| 20260503004354 | 56 | 232 | 0.0 | 0.0 | 0.00 | 0.00 | 0.00 | 32 | 1010.9 |
| 20260503003851 | 56 | 232 | 1.0 | 1.0 | 0.00 | 0.00 | 0.00 | 31 | 1011.3 |
| 20260503003348 | 57 | 240 | 0.0 | 0.0 | 0.00 | 0.00 | 0.00 | 30 | 1010.6 |
| 20260503002845 | 57 | 204 | 2.0 | 2.0 | 0.00 | 0.00 | 0.00 | 31 | 1010.9 |
| 20260503002342 | 58 | 222 | 2.0 | 2.0 | 0.00 | 0.00 | 0.00 | 30 | 1010.9 |
| 20260503001838 | 58 | 277 | 3.0 | 3.0 | 0.00 | 0.00 | 0.00 | 29 | 1010.9 |
| 20260503001335 | 58 | 276 | 2.0 | 2.0 | 0.00 | 0.00 | 0.00 | 30 | 1011.3 |
| 20260503000832 | 59 | 208 | 2.0 | 2.0 | 0.00 | 0.00 | 0.00 | 29 | 1011.3 |
| 20260503000330 | 59 | 252 | 2.0 | 2.0 | 0.00 | 0.00 | 0.00 | 28 | 1011.3 |
| 20260502235827 | 60 | 26 | 2.0 | 2.0 | 0.00 | 0.00 | 0.00 | 28 | 1010.9 |
| 20260502235324 | 60 | 272 | 2.0 | 2.0 | 0.00 | 0.00 | 0.00 | 27 | 1011.3 |
| 20260502234820 | 60 | 184 | 4.0 | 5.0 | 0.00 | 0.00 | 0.00 | 28 | 1011.3 |
| 20260502234317 | 60 | 138 | 2.0 | 2.0 | 0.00 | 0.00 | 0.00 | 27 | 1011.3 |
| 20260502233814 | 61 | 248 | 1.0 | 1.0 | 0.00 | 0.00 | 0.00 | 26 | 1011.3 |
| 20260502233310 | 61 | 283 | 2.0 | 2.0 | 0.00 | 0.00 | 0.00 | 27 | 1011.3 |
| 20260502232807 | 60 | 198 | 1.0 | 1.0 | 0.00 | 0.00 | 0.00 | 27 | 1011.6 |
| 20260502232305 | 60 | 104 | 3.0 | 3.0 | 0.00 | 0.00 | 0.00 | 27 | 1011.3 |
| 20260502231800 | 61 | 184 | 6.0 | 7.0 | 0.00 | 0.00 | 0.00 | 26 | 1011.6 |
| 20260502231258 | 61 | 222 | 2.0 | 2.0 | 0.00 | 0.00 | 0.00 | 25 | 1011.6 |
| 20260502230756 | 62 | 282 | 3.0 | 3.0 | 0.00 | 0.00 | 0.00 | 25 | 1011.6 |
| 20260502230254 | 61 | 265 | 2.0 | 2.0 | 0.00 | 0.00 | 0.00 | 25 | 1011.6 |
| 20260502225750 | 62 | 285 | 2.0 | 2.0 | 0.00 | 0.00 | 0.00 | 26 | 1011.6 |
| 20260502225247 | 61 | 174 | 2.0 | 2.0 | 0.00 | 0.00 | 0.00 | 26 | 1012.1 |
| 20260502224743 | 61 | 320 | 3.0 | 3.0 | 0.00 | 0.00 | 0.00 | 27 | 1011.6 |
| 20260502224240 | 62 | 141 | 3.0 | 3.0 | 0.00 | 0.00 | 0.00 | 26 | 1011.6 |
| 20260502223738 | 62 | 187 | 2.0 | 2.0 | 0.00 | 0.00 | 0.00 | 25 | 1011.6 |
| 20260502223236 | 62 | 280 | 2.0 | 2.0 | 0.00 | 0.00 | 0.00 | 26 | 1012.1 |
| 20260502222733 | 63 | 312 | 0.0 | 0.0 | 0.00 | 0.00 | 0.00 | 23 | 1011.6 |
| 20260502222230 | 62 | 280 | 5.0 | 6.0 | 0.00 | 0.00 | 0.00 | 25 | 1011.6 |
| 20260502221725 | 62 | 282 | 3.0 | 3.0 | 0.00 | 0.00 | 0.00 | 26 | 1012.1 |
| 20260502221223 | 61 | 287 | 2.0 | 2.0 | 0.00 | 0.00 | 0.00 | 25 | 1012.1 |
| 20260502220719 | 61 | 196 | 2.0 | 2.0 | 0.00 | 0.00 | 0.00 | 26 | 1012.1 |
| 20260502220215 | 63 | 288 | 5.0 | 6.0 | 0.00 | 0.00 | 0.00 | 25 | 1012.1 |
| 20260502215712 | 63 | 204 | 6.0 | 6.0 | 0.00 | 0.00 | 0.00 | 24 | 1012.4 |
| 20260502215209 | 62 | 335 | 2.0 | 2.0 | 0.00 | 0.00 | 0.00 | 25 | 1012.4 |
| 20260502214707 | 62 | 18 | 3.0 | 3.0 | 0.00 | 0.00 | 0.00 | 26 | 1012.4 |
| 20260502214204 | 61 | 278 | 2.0 | 2.0 | 0.00 | 0.00 | 0.00 | 26 | 1012.4 |
| 20260502213701 | 60 | 236 | 5.0 | 5.0 | 0.00 | 0.00 | 0.00 | 26 | 1012.4 |
| 20260502213158 | 61 | 274 | 3.0 | 3.0 | 0.00 | 0.00 | 0.00 | 27 | 1012.4 |
| 20260502212656 | 61 | 132 | 7.0 | 7.0 | 0.00 | 0.00 | 0.00 | 26 | 1012.1 |